| time (UTC) | temp C | wind direction | speed KPH | gust KPH | rain 1hr cm | rain 24hr cm | rain mn cm | humidity % | barometer mb |
| 20260505152332 | 18 | 287 | 6.4 | 9.7 | 0.00 | 0.00 | 0.00 | 70 | 1005.5 |
| 20260505151832 | 18 | 271 | 12.9 | 22.5 | 0.00 | 0.00 | 0.00 | 69 | 1005.4 |
| 20260505151328 | 18 | 266 | 6.4 | 9.7 | 0.00 | 0.00 | 0.00 | 69 | 1005.5 |
| 20260505150825 | 19 | 264 | 8.0 | 11.3 | 0.00 | 0.00 | 0.00 | 69 | 1005.5 |
| 20260505150322 | 18 | 258 | 4.8 | 4.8 | 0.00 | 0.00 | 0.00 | 70 | 1005.1 |
| 20260505140247 | 17 | 223 | 8.0 | 9.7 | 0.00 | 0.00 | 0.00 | 76 | 1005.1 |
| 20260505130211 | 15 | 244 | 4.8 | 4.8 | 0.00 | 0.00 | 0.00 | 83 | 1004.7 |
| 20260505124701 | 15 | 269 | 8.0 | 11.3 | 0.00 | 0.00 | 0.00 | 83 | 1004.7 |
| 20260505124157 | 15 | 223 | 1.6 | 3.2 | 0.00 | 0.00 | 0.00 | 84 | 1004.7 |
| 20260505123653 | 15 | 240 | 1.6 | 1.6 | 0.00 | 0.00 | 0.00 | 84 | 1004.7 |
| 20260505123150 | 15 | 232 | 4.8 | 4.8 | 0.00 | 0.00 | 0.00 | 84 | 1004.5 |
| 20260505122647 | 15 | 251 | 3.2 | 3.2 | 0.00 | 0.00 | 0.00 | 84 | 1004.2 |
| 20260505122144 | 15 | 247 | 1.6 | 1.6 | 0.00 | 0.00 | 0.00 | 83 | 1004.2 |
| 20260505121641 | 15 | 247 | 3.2 | 3.2 | 0.00 | 0.00 | 0.00 | 83 | 1004.1 |
| 20260505121137 | 15 | 303 | 1.6 | 3.2 | 0.00 | 0.00 | 0.00 | 82 | 1004.3 |
| 20260505120633 | 15 | 248 | 3.2 | 3.2 | 0.00 | 0.00 | 0.00 | 82 | 1004.0 |
| 20260505120129 | 15 | 228 | 6.4 | 8.0 | 0.00 | 0.00 | 0.00 | 81 | 1004.1 |
| 20260505115624 | 15 | 130 | 1.6 | 1.6 | 0.00 | 0.00 | 0.00 | 81 | 1003.7 |
| 20260505115121 | 15 | 204 | 1.6 | 3.2 | 0.00 | 0.00 | 0.00 | 82 | 1003.8 |
| 20260505114618 | 15 | 254 | 1.6 | 1.6 | 0.00 | 0.00 | 0.00 | 81 | 1004.1 |
| 20260505114115 | 15 | 262 | 3.2 | 3.2 | 0.00 | 0.00 | 0.00 | 81 | 1004.0 |
| 20260505113611 | 15 | 257 | 4.8 | 8.0 | 0.00 | 0.00 | 0.00 | 80 | 1004.2 |
| 20260505113108 | 15 | 261 | 8.0 | 9.7 | 0.00 | 0.00 | 0.00 | 79 | 1004.3 |
| 20260505112604 | 15 | 182 | 6.4 | 9.7 | 0.00 | 0.00 | 0.00 | 79 | 1004.4 |
| 20260505112102 | 15 | 271 | 1.6 | 1.6 | 0.00 | 0.00 | 0.00 | 78 | 1004.1 |
| 20260505111556 | 15 | 256 | 1.6 | 1.6 | 0.00 | 0.00 | 0.00 | 77 | 1004.2 |
| 20260505111052 | 15 | 250 | 0.0 | 0.0 | 0.00 | 0.00 | 0.00 | 77 | 1004.1 |
| 20260505110549 | 15 | 247 | 1.6 | 1.6 | 0.00 | 0.00 | 0.00 | 77 | 1004.1 |
| 20260505102021 | 16 | 257 | 4.8 | 4.8 | 0.00 | 0.00 | 0.00 | 73 | 1004.3 |
| 20260505101520 | 16 | 266 | 6.4 | 9.7 | 0.00 | 0.00 | 0.00 | 73 | 1004.2 |
| 20260505101016 | 16 | 257 | 4.8 | 8.0 | 0.00 | 0.00 | 0.00 | 73 | 1004.4 |
| 20260505100513 | 16 | 271 | 4.8 | 4.8 | 0.00 | 0.00 | 0.00 | 72 | 1004.0 |
| 20260505100010 | 16 | 250 | 6.4 | 8.0 | 0.00 | 0.00 | 0.00 | 72 | 1004.2 |
| 20260505095506 | 16 | 252 | 4.8 | 8.0 | 0.00 | 0.00 | 0.00 | 71 | 1004.2 |
| 20260505095002 | 16 | 239 | 8.0 | 11.3 | 0.00 | 0.00 | 0.00 | 71 | 1004.3 |
| 20260505094459 | 16 | 256 | 4.8 | 4.8 | 0.00 | 0.00 | 0.00 | 71 | 1004.1 |
| 20260505093955 | 16 | 311 | 6.4 | 9.7 | 0.00 | 0.00 | 0.00 | 70 | 1004.0 |
| 20260505093452 | 16 | 263 | 8.0 | 9.7 | 0.00 | 0.00 | 0.00 | 70 | 1003.9 |
| 20260505092949 | 16 | 252 | 3.2 | 4.8 | 0.00 | 0.00 | 0.00 | 70 | 1003.9 |
| 20260505092446 | 16 | 282 | 4.8 | 4.8 | 0.00 | 0.00 | 0.00 | 70 | 1003.9 |
| 20260505091944 | 16 | 220 | 6.4 | 8.0 | 0.00 | 0.00 | 0.00 | 70 | 1003.7 |
| 20260505091441 | 17 | 265 | 4.8 | 4.8 | 0.00 | 0.00 | 0.00 | 70 | 1004.0 |
| 20260505090939 | 17 | 246 | 8.0 | 9.7 | 0.00 | 0.00 | 0.00 | 69 | 1003.8 |
| 20260505090437 | 17 | 267 | 6.4 | 8.0 | 0.00 | 0.00 | 0.00 | 69 | 1004.0 |
| 20260505085934 | 17 | 278 | 6.4 | 9.7 | 0.00 | 0.00 | 0.00 | 69 | 1003.7 |
| 20260505085432 | 17 | 267 | 9.7 | 11.3 | 0.00 | 0.00 | 0.00 | 68 | 1003.7 |
| 20260505084930 | 17 | 255 | 8.0 | 11.3 | 0.00 | 0.00 | 0.00 | 68 | 1003.7 |
| 20260505084428 | 17 | 255 | 8.0 | 11.3 | 0.00 | 0.00 | 0.00 | 67 | 1003.7 |
| 20260505083926 | 17 | 233 | 6.4 | 9.7 | 0.00 | 0.00 | 0.00 | 67 | 1003.4 |
| 20260505083423 | 17 | 311 | 4.8 | 4.8 | 0.00 | 0.00 | 0.00 | 67 | 1003.3 |
| 20260505082919 | 17 | 269 | 4.8 | 4.8 | 0.00 | 0.00 | 0.00 | 67 | 1003.3 |
| 20260505082415 | 17 | 262 | 8.0 | 9.7 | 0.00 | 0.00 | 0.00 | 67 | 1003.2 |
| 20260505081912 | 17 | 259 | 3.2 | 3.2 | 0.00 | 0.00 | 0.00 | 66 | 1003.1 |
| 20260505081409 | 17 | 274 | 6.4 | 9.7 | 0.00 | 0.00 | 0.00 | 66 | 1002.9 |
| 20260505080905 | 17 | 176 | 8.0 | 9.7 | 0.00 | 0.00 | 0.00 | 66 | 1002.7 |
| 20260505080401 | 18 | 280 | 8.0 | 11.3 | 0.00 | 0.00 | 0.00 | 66 | 1002.9 |
| 20260505075857 | 18 | 234 | 1.6 | 1.6 | 0.00 | 0.00 | 0.00 | 66 | 1002.8 |
| 20260505075354 | 18 | 246 | 8.0 | 9.7 | 0.00 | 0.00 | 0.00 | 66 | 1002.8 |
| 20260505074851 | 18 | 245 | 4.8 | 8.0 | 0.00 | 0.00 | 0.00 | 66 | 1002.8 |
| 20260505074348 | 18 | 305 | 8.0 | 11.3 | 0.00 | 0.00 | 0.00 | 66 | 1002.9 |
| 20260505073846 | 18 | 117 | 6.4 | 8.0 | 0.00 | 0.00 | 0.00 | 66 | 1002.7 |
| 20260505073344 | 17 | 260 | 6.4 | 8.0 | 0.00 | 0.00 | 0.00 | 66 | 1003.0 |
| 20260505072840 | 17 | 271 | 8.0 | 14.5 | 0.00 | 0.00 | 0.00 | 66 | 1002.8 |
| 20260505072336 | 17 | 240 | 6.4 | 8.0 | 0.00 | 0.00 | 0.00 | 66 | 1002.7 |
| 20260505071832 | 18 | 236 | 9.7 | 14.5 | 0.00 | 0.00 | 0.00 | 66 | 1002.8 |
| 20260505071329 | 18 | 240 | 1.6 | 3.2 | 0.00 | 0.00 | 0.00 | 66 | 1002.6 |
| 20260505070828 | 17 | 180 | 6.4 | 9.7 | 0.00 | 0.00 | 0.00 | 66 | 1002.8 |
| 20260505070324 | 17 | 253 | 14.5 | 17.7 | 0.00 | 0.00 | 0.00 | 66 | 1002.8 |
| 20260505065819 | 18 | 224 | 3.2 | 3.2 | 0.00 | 0.00 | 0.00 | 66 | 1002.7 |
| 20260505065316 | 18 | 267 | 4.8 | 9.7 | 0.00 | 0.00 | 0.00 | 66 | 1002.6 |
| 20260505064813 | 18 | 312 | 4.8 | 4.8 | 0.00 | 0.00 | 0.00 | 66 | 1002.7 |
| 20260505064310 | 18 | 256 | 3.2 | 3.2 | 0.00 | 0.00 | 0.00 | 66 | 1002.4 |
| 20260505063808 | 18 | 282 | 4.8 | 9.7 | 0.00 | 0.00 | 0.00 | 66 | 1002.6 |
| 20260505063304 | 18 | 266 | 1.6 | 1.6 | 0.00 | 0.00 | 0.00 | 66 | 1002.4 |
| 20260505062800 | 18 | 106 | 1.6 | 3.2 | 0.00 | 0.00 | 0.00 | 66 | 1002.5 |
| 20260505062258 | 18 | 269 | 6.4 | 8.0 | 0.00 | 0.00 | 0.00 | 66 | 1002.8 |
| 20260505061755 | 18 | 250 | 4.8 | 8.0 | 0.00 | 0.00 | 0.00 | 66 | 1002.6 |
| 20260505061252 | 18 | 256 | 8.0 | 11.3 | 0.00 | 0.00 | 0.00 | 65 | 1002.6 |
| 20260505060750 | 18 | 259 | 8.0 | 9.7 | 0.00 | 0.00 | 0.00 | 65 | 1002.6 |
| 20260505060247 | 18 | 281 | 3.2 | 3.2 | 0.00 | 0.00 | 0.00 | 66 | 1002.6 |
| 20260505055742 | 18 | 304 | 4.8 | 8.0 | 0.00 | 0.00 | 0.00 | 65 | 1002.5 |
| 20260505055238 | 18 | 209 | 11.3 | 16.1 | 0.00 | 0.00 | 0.00 | 65 | 1002.6 |
| 20260505054736 | 18 | 247 | 1.6 | 1.6 | 0.00 | 0.00 | 0.00 | 65 | 1002.8 |
| 20260505054234 | 18 | 254 | 3.2 | 3.2 | 0.00 | 0.00 | 0.00 | 66 | 1002.9 |
| 20260505053732 | 18 | 270 | 4.8 | 11.3 | 0.00 | 0.00 | 0.00 | 65 | 1002.9 |
| 20260505053228 | 18 | 205 | 4.8 | 8.0 | 0.00 | 0.00 | 0.00 | 65 | 1003.1 |
| 20260505052725 | 18 | 270 | 1.6 | 3.2 | 0.00 | 0.00 | 0.00 | 66 | 1003.1 |
| 20260505052222 | 18 | 206 | 4.8 | 8.0 | 0.00 | 0.00 | 0.00 | 65 | 1003.0 |
| 20260505051719 | 18 | 261 | 8.0 | 9.7 | 0.00 | 0.00 | 0.00 | 64 | 1003.0 |
| 20260505051212 | 18 | 238 | 6.4 | 8.0 | 0.00 | 0.00 | 0.00 | 65 | 1003.3 |
| 20260505050709 | 18 | 242 | 3.2 | 3.2 | 0.00 | 0.00 | 0.00 | 64 | 1003.0 |
| 20260505050207 | 18 | 165 | 4.8 | 4.8 | 0.00 | 0.00 | 0.00 | 64 | 1003.3 |
| 20260505041637 | 18 | 241 | 6.4 | 8.0 | 0.00 | 0.00 | 0.00 | 66 | 1003.3 |
| 20260505041134 | 18 | 161 | 4.8 | 4.8 | 0.00 | 0.00 | 0.00 | 66 | 1003.3 |
| 20260505040631 | 18 | 50 | 3.2 | 8.0 | 0.00 | 0.00 | 0.00 | 66 | 1003.1 |
| 20260505040128 | 18 | 182 | 1.6 | 1.6 | 0.00 | 0.00 | 0.00 | 66 | 1003.2 |
| 20260505035625 | 18 | 244 | 1.6 | 1.6 | 0.00 | 0.00 | 0.00 | 67 | 1003.3 |
| 20260505035121 | 18 | 186 | 4.8 | 4.8 | 0.00 | 0.00 | 0.00 | 67 | 1003.2 |
| 20260505034618 | 18 | 276 | 3.2 | 3.2 | 0.00 | 0.00 | 0.00 | 68 | 1003.3 |
| 20260505034114 | 18 | 184 | 3.2 | 4.8 | 0.00 | 0.00 | 0.00 | 67 | 1003.3 |
| 20260505033611 | 18 | 236 | 4.8 | 8.0 | 0.00 | 0.00 | 0.00 | 68 | 1003.3 |
| 20260505033110 | 18 | 241 | 1.6 | 3.2 | 0.00 | 0.00 | 0.00 | 68 | 1003.3 |
| 20260505032607 | 18 | 238 | 4.8 | 4.8 | 0.00 | 0.00 | 0.00 | 69 | 1003.2 |
| 20260505032103 | 18 | 238 | 3.2 | 3.2 | 0.00 | 0.00 | 0.00 | 70 | 1003.2 |
| 20260505031601 | 18 | 136 | 3.2 | 4.8 | 0.00 | 0.00 | 0.00 | 70 | 1003.3 |
| 20260505031057 | 18 | 262 | 1.6 | 3.2 | 0.00 | 0.00 | 0.00 | 70 | 1003.3 |
| 20260505030554 | 18 | 242 | 8.0 | 9.7 | 0.00 | 0.00 | 0.00 | 70 | 1003.2 |
| 20260505030050 | 18 | 253 | 4.8 | 4.8 | 0.00 | 0.00 | 0.00 | 71 | 1003.3 |
| 20260505025546 | 18 | 266 | 1.6 | 1.6 | 0.00 | 0.00 | 0.00 | 71 | 1003.0 |
| 20260505025045 | 18 | 210 | 4.8 | 12.9 | 0.00 | 0.00 | 0.00 | 71 | 1003.1 |
| 20260505024542 | 17 | 204 | 6.4 | 9.7 | 0.00 | 0.00 | 0.00 | 72 | 1003.1 |
| 20260505024039 | 17 | 46 | 1.6 | 3.2 | 0.00 | 0.00 | 0.00 | 72 | 1003.0 |
| 20260505023536 | 17 | 164 | 3.2 | 4.8 | 0.00 | 0.00 | 0.00 | 72 | 1002.9 |
| 20260505023033 | 17 | 254 | 3.2 | 3.2 | 0.00 | 0.00 | 0.00 | 72 | 1002.9 |
| 20260505022531 | 17 | 216 | 3.2 | 3.2 | 0.00 | 0.00 | 0.00 | 72 | 1003.1 |
| 20260505022028 | 17 | 200 | 1.6 | 1.6 | 0.00 | 0.00 | 0.00 | 72 | 1003.0 |
| 20260505021524 | 17 | 176 | 1.6 | 3.2 | 0.00 | 0.00 | 0.00 | 72 | 1003.1 |
| 20260505021021 | 17 | 216 | 4.8 | 8.0 | 0.00 | 0.00 | 0.00 | 72 | 1003.1 |
| 20260505020520 | 17 | 233 | 4.8 | 9.7 | 0.00 | 0.00 | 0.00 | 73 | 1003.0 |
| 20260505020018 | 17 | 274 | 0.0 | 1.6 | 0.00 | 0.00 | 0.00 | 74 | 1003.1 |
| 20260505015515 | 17 | 241 | 0.0 | 0.0 | 0.00 | 0.00 | 0.00 | 74 | 1003.0 |
| 20260505015012 | 17 | 249 | 0.0 | 1.6 | 0.00 | 0.00 | 0.00 | 76 | 1003.1 |
| 20260505014509 | 17 | 192 | 3.2 | 3.2 | 0.00 | 0.00 | 0.00 | 74 | 1002.9 |
| 20260505014006 | 17 | 212 | 3.2 | 3.2 | 0.00 | 0.00 | 0.00 | 73 | 1002.7 |
| 20260505013503 | 17 | 173 | 4.8 | 4.8 | 0.00 | 0.00 | 0.00 | 74 | 1002.8 |
| 20260505013000 | 17 | 220 | 0.0 | 1.6 | 0.00 | 0.00 | 0.00 | 74 | 1002.8 |
| 20260505012458 | 17 | 226 | 1.6 | 1.6 | 0.00 | 0.00 | 0.00 | 73 | 1002.8 |
| 20260505011955 | 17 | 187 | 3.2 | 8.0 | 0.00 | 0.00 | 0.00 | 74 | 1002.7 |
| 20260505011451 | 17 | 169 | 4.8 | 8.0 | 0.00 | 0.00 | 0.00 | 74 | 1002.6 |
| 20260505010948 | 17 | 218 | 3.2 | 3.2 | 0.00 | 0.00 | 0.00 | 73 | 1002.8 |
| 20260505010443 | 17 | 206 | 3.2 | 3.2 | 0.00 | 0.00 | 0.00 | 72 | 1002.7 |
| 20260505005940 | 17 | 167 | 3.2 | 3.2 | 0.00 | 0.00 | 0.00 | 72 | 1002.8 |
| 20260505005436 | 17 | 231 | 0.0 | 1.6 | 0.00 | 0.00 | 0.00 | 71 | 1002.7 |
| 20260505004934 | 18 | 193 | 3.2 | 3.2 | 0.00 | 0.00 | 0.00 | 70 | 1002.8 |
| 20260505004431 | 18 | 211 | 1.6 | 3.2 | 0.00 | 0.00 | 0.00 | 70 | 1002.6 |
| 20260505003928 | 18 | 229 | 1.6 | 3.2 | 0.00 | 0.00 | 0.00 | 69 | 1002.8 |
| 20260505003425 | 18 | 235 | 1.6 | 1.6 | 0.00 | 0.00 | 0.00 | 67 | 1002.7 |
| 20260505002921 | 18 | 238 | 0.0 | 1.6 | 0.00 | 0.00 | 0.00 | 67 | 1002.6 |
| 20260505002417 | 19 | 188 | 3.2 | 3.2 | 0.00 | 0.00 | 0.00 | 66 | 1002.6 |
| 20260505001916 | 19 | 242 | 1.6 | 1.6 | 0.00 | 0.00 | 0.00 | 65 | 1002.7 |
| 20260505001413 | 20 | 163 | 3.2 | 3.2 | 0.00 | 0.00 | 0.00 | 64 | 1002.6 |
| 20260505000910 | 20 | 179 | 6.4 | 8.0 | 0.00 | 0.00 | 0.00 | 64 | 1002.6 |
| 20260505000408 | 20 | 241 | 1.6 | 1.6 | 0.00 | 0.00 | 0.00 | 63 | 1002.6 |
| 20260504235904 | 20 | 227 | 0.0 | 1.6 | 0.00 | 0.00 | 0.00 | 64 | 1002.6 |
| 20260504235402 | 20 | 224 | 3.2 | 3.2 | 0.00 | 0.00 | 0.00 | 63 | 1002.6 |
| 20260504234857 | 20 | 232 | 3.2 | 3.2 | 0.00 | 0.00 | 0.00 | 62 | 1002.6 |
| 20260504234355 | 20 | 149 | 6.4 | 8.0 | 0.00 | 0.00 | 0.00 | 62 | 1002.7 |
| 20260504233852 | 20 | 206 | 8.0 | 8.0 | 0.00 | 0.00 | 0.00 | 62 | 1002.9 |
| 20260504233348 | 20 | 199 | 4.8 | 4.8 | 0.00 | 0.00 | 0.00 | 63 | 1002.7 |
| 20260504232844 | 20 | 238 | 0.0 | 0.0 | 0.00 | 0.00 | 0.00 | 63 | 1002.9 |
| 20260504232342 | 20 | 225 | 1.6 | 1.6 | 0.00 | 0.00 | 0.00 | 64 | 1002.8 |
| 20260504231838 | 19 | 178 | 1.6 | 1.6 | 0.00 | 0.00 | 0.00 | 64 | 1003.0 |
| 20260504231335 | 19 | 231 | 4.8 | 4.8 | 0.00 | 0.00 | 0.00 | 65 | 1003.0 |
| 20260504230831 | 20 | 247 | 4.8 | 4.8 | 0.00 | 0.00 | 0.00 | 64 | 1003.1 |
| 20260504230329 | 20 | 147 | 1.6 | 1.6 | 0.00 | 0.00 | 0.00 | 64 | 1003.0 |
| 20260504225827 | 20 | 155 | 1.6 | 3.2 | 0.00 | 0.00 | 0.00 | 64 | 1003.1 |
| 20260504225323 | 20 | 239 | 1.6 | 3.2 | 0.00 | 0.00 | 0.00 | 64 | 1003.2 |
| 20260504224821 | 20 | 216 | 8.0 | 11.3 | 0.00 | 0.00 | 0.00 | 61 | 1003.3 |
| 20260504224318 | 20 | 233 | 1.6 | 3.2 | 0.00 | 0.00 | 0.00 | 60 | 1003.2 |
| 20260504223815 | 20 | 267 | 4.8 | 4.8 | 0.00 | 0.00 | 0.00 | 61 | 1003.3 |
| 20260504223310 | 20 | 210 | 4.8 | 8.0 | 0.00 | 0.00 | 0.00 | 61 | 1003.4 |
| 20260504222807 | 20 | 277 | 6.4 | 8.0 | 0.00 | 0.00 | 0.00 | 63 | 1003.4 |
| 20260504222305 | 20 | 331 | 6.4 | 11.3 | 0.00 | 0.00 | 0.00 | 60 | 1003.3 |
| 20260504221802 | 21 | 241 | 4.8 | 8.0 | 0.00 | 0.00 | 0.00 | 58 | 1003.6 |
| 20260504221259 | 20 | 192 | 6.4 | 9.7 | 0.00 | 0.00 | 0.00 | 59 | 1003.5 |
| 20260504220755 | 20 | 273 | 3.2 | 4.8 | 0.00 | 0.00 | 0.00 | 60 | 1003.5 |
| 20260504220252 | 21 | 226 | 6.4 | 12.9 | 0.00 | 0.00 | 0.00 | 58 | 1003.7 |
| 20260504215750 | 20 | 248 | 1.6 | 3.2 | 0.00 | 0.00 | 0.00 | 61 | 1003.6 |
| 20260504215246 | 20 | 257 | 6.4 | 9.7 | 0.00 | 0.00 | 0.00 | 60 | 1003.4 |
| 20260504214742 | 21 | 256 | 8.0 | 11.3 | 0.00 | 0.00 | 0.00 | 56 | 1003.4 |
| 20260504214238 | 21 | 202 | 6.4 | 9.7 | 0.00 | 0.00 | 0.00 | 56 | 1003.7 |
| 20260504213736 | 21 | 267 | 11.3 | 14.5 | 0.00 | 0.00 | 0.00 | 56 | 1003.4 |
| 20260504213232 | 21 | 267 | 6.4 | 11.3 | 0.00 | 0.00 | 0.00 | 60 | 1003.6 |
| 20260504212729 | 21 | 243 | 4.8 | 4.8 | 0.00 | 0.00 | 0.00 | 59 | 1003.2 |
| 20260504212225 | 21 | 269 | 1.6 | 1.6 | 0.00 | 0.00 | 0.00 | 59 | 1003.0 |
| 20260504211723 | 21 | 317 | 3.2 | 3.2 | 0.00 | 0.00 | 0.00 | 58 | 1003.0 |
| 20260504211219 | 20 | 227 | 1.6 | 3.2 | 0.00 | 0.00 | 0.00 | 61 | 1003.1 |
| 20260504210717 | 20 | 260 | 9.7 | 12.9 | 0.00 | 0.00 | 0.00 | 60 | 1003.5 |
| 20260504210214 | 20 | 303 | 8.0 | 12.9 | 0.00 | 0.00 | 0.00 | 60 | 1003.2 |
| 20260504205711 | 20 | 282 | 8.0 | 11.3 | 0.00 | 0.00 | 0.00 | 61 | 1003.5 |
| 20260504205208 | 20 | 258 | 8.0 | 12.9 | 0.00 | 0.00 | 0.00 | 63 | 1003.9 |
| 20260504204706 | 20 | 328 | 1.6 | 1.6 | 0.00 | 0.00 | 0.00 | 63 | 1003.9 |
| 20260504204205 | 20 | 261 | 8.0 | 12.9 | 0.00 | 0.00 | 0.00 | 61 | 1003.9 |
| 20260504203703 | 20 | 282 | 12.9 | 12.9 | 0.00 | 0.00 | 0.00 | 61 | 1004.0 |
| 20260504203200 | 20 | 286 | 6.4 | 9.7 | 0.00 | 0.00 | 0.00 | 61 | 1004.1 |
| 20260504202654 | 20 | 259 | 11.3 | 17.7 | 0.00 | 0.00 | 0.00 | 60 | 1004.2 |
| 20260504202152 | 21 | 259 | 14.5 | 16.1 | 0.00 | 0.00 | 0.00 | 58 | 1004.2 |
| 20260504201649 | 21 | 273 | 14.5 | 16.1 | 0.00 | 0.00 | 0.00 | 58 | 1004.2 |
| 20260504201146 | 22 | 243 | 11.3 | 14.5 | 0.00 | 0.00 | 0.00 | 57 | 1004.2 |
| 20260504200643 | 22 | 236 | 9.7 | 11.3 | 0.00 | 0.00 | 0.00 | 54 | 1004.1 |
| 20260504200140 | 22 | 319 | 9.7 | 16.1 | 0.00 | 0.00 | 0.00 | 56 | 1004.1 |
| 20260504195636 | 22 | 264 | 11.3 | 12.9 | 0.00 | 0.00 | 0.00 | 56 | 1004.0 |
| 20260504195132 | 22 | 268 | 12.9 | 16.1 | 0.00 | 0.00 | 0.00 | 56 | 1004.1 |
| 20260504194629 | 21 | 290 | 6.4 | 8.0 | 0.00 | 0.00 | 0.00 | 57 | 1004.3 |
| 20260504194125 | 21 | 209 | 8.0 | 12.9 | 0.00 | 0.00 | 0.00 | 57 | 1004.3 |
| 20260504193621 | 22 | 245 | 9.7 | 16.1 | 0.00 | 0.00 | 0.00 | 55 | 1004.0 |
| 20260504193120 | 22 | 272 | 11.3 | 14.5 | 0.00 | 0.00 | 0.00 | 56 | 1004.0 |
| 20260504192618 | 22 | 180 | 11.3 | 16.1 | 0.00 | 0.00 | 0.00 | 55 | 1003.9 |
| 20260504192115 | 22 | 301 | 6.4 | 9.7 | 0.00 | 0.00 | 0.00 | 56 | 1003.9 |
| 20260504191614 | 22 | 234 | 4.8 | 12.9 | 0.00 | 0.00 | 0.00 | 56 | 1004.2 |
| 20260504191109 | 21 | 180 | 6.4 | 8.0 | 0.00 | 0.00 | 0.00 | 57 | 1004.1 |
| 20260504190606 | 21 | 283 | 11.3 | 12.9 | 0.00 | 0.00 | 0.00 | 56 | 1004.0 |
| 20260504185559 | 21 | 151 | 4.8 | 4.8 | 0.00 | 0.00 | 0.00 | 58 | 1004.1 |
| 20260504185055 | 21 | 243 | 4.8 | 4.8 | 0.00 | 0.00 | 0.00 | 57 | 1004.3 |
| 20260504184551 | 21 | 247 | 4.8 | 8.0 | 0.00 | 0.00 | 0.00 | 55 | 1004.2 |
| 20260504184046 | 22 | 237 | 4.8 | 8.0 | 0.00 | 0.00 | 0.00 | 56 | 1004.4 |
| 20260504183544 | 21 | 270 | 6.4 | 9.7 | 0.00 | 0.00 | 0.00 | 58 | 1004.3 |
| 20260504183042 | 21 | 246 | 8.0 | 11.3 | 0.00 | 0.00 | 0.00 | 58 | 1004.4 |
| 20260504182539 | 21 | 194 | 3.2 | 3.2 | 0.00 | 0.00 | 0.00 | 60 | 1004.4 |
| 20260504182036 | 21 | 309 | 8.0 | 12.9 | 0.00 | 0.00 | 0.00 | 57 | 1004.2 |
| 20260504181533 | 21 | 273 | 8.0 | 9.7 | 0.00 | 0.00 | 0.00 | 58 | 1004.4 |
| 20260504181031 | 21 | 172 | 8.0 | 11.3 | 0.00 | 0.00 | 0.00 | 59 | 1004.4 |
| 20260504180530 | 21 | 238 | 8.0 | 12.9 | 0.00 | 0.00 | 0.00 | 58 | 1004.5 |
| 20260504180028 | 20 | 253 | 4.8 | 8.0 | 0.00 | 0.00 | 0.00 | 60 | 1004.6 |
| 20260504175525 | 20 | 97 | 8.0 | 11.3 | 0.00 | 0.00 | 0.00 | 60 | 1004.6 |
| 20260504175022 | 20 | 299 | 8.0 | 11.3 | 0.00 | 0.00 | 0.00 | 60 | 1004.5 |
| 20260504174520 | 20 | 265 | 8.0 | 9.7 | 0.00 | 0.00 | 0.00 | 58 | 1004.5 |
| 20260504174017 | 20 | 140 | 12.9 | 20.9 | 0.00 | 0.00 | 0.00 | 61 | 1004.7 |
| 20260504173513 | 20 | 254 | 6.4 | 9.7 | 0.00 | 0.00 | 0.00 | 62 | 1004.6 |
| 20260504173011 | 20 | 29 | 6.4 | 8.0 | 0.00 | 0.00 | 0.00 | 61 | 1004.7 |
| 20260504172507 | 20 | 255 | 12.9 | 14.5 | 0.00 | 0.00 | 0.00 | 60 | 1004.7 |
| 20260504172003 | 20 | 166 | 9.7 | 12.9 | 0.00 | 0.00 | 0.00 | 61 | 1004.6 |
| 20260504171500 | 19 | 217 | 11.3 | 16.1 | 0.00 | 0.00 | 0.00 | 61 | 1005.0 |
| 20260504170957 | 19 | 213 | 3.2 | 4.8 | 0.00 | 0.00 | 0.00 | 63 | 1005.0 |
| 20260504170453 | 19 | 219 | 8.0 | 11.3 | 0.00 | 0.00 | 0.00 | 62 | 1005.0 |
| 20260504160413 | 17 | 282 | 6.4 | 8.0 | 0.00 | 0.00 | 0.00 | 64 | 1005.7 |